Location: Gila Cliff Dwellings National Monument
(33.2240°N, 108.2417°W)
Time: 13:41:08
(UTC-06:00)

Cosmos 2322 Rocket - Visible Passes

Search period start: 19 April 2018 00:00
Search period end: 29 April 2018 00:00
Orbit: 832 x 851 km, 71.0° (Epoch: 19 April)

Date Brightness Start Highest point End Pass type
(mag) Time Alt. Az. Time Alt. Az. Time Alt. Az.
19 Apr 5.4 03:50:54 10° NE 03:52:26 11° NE 03:54:00 10° ENE visible
19 Apr 2.2 05:31:34 10° NNW 05:37:14 89° WSW 05:42:50 10° SSE visible
19 Apr 5.1 20:19:53 10° WSW 20:24:11 22° WNW 20:28:32 10° N visible
20 Apr 5.4 03:36:29 10° NE 03:37:23 10° NE 03:38:18 10° ENE visible
20 Apr 2.2 05:16:33 10° NNW 05:22:13 86° ENE 05:27:50 10° SSE visible
20 Apr 5.0 20:04:43 10° WSW 20:09:09 23° WNW 20:13:37 10° N visible
21 Apr 2.2 05:01:33 10° NNW 05:07:13 82° ENE 05:12:49 10° SSE visible
22 Apr 2.3 04:46:33 10° NNW 04:52:12 77° ENE 04:57:48 10° SSE visible
23 Apr 2.3 04:31:33 10° NNW 04:37:11 73° ENE 04:42:46 10° SSE visible
24 Apr 2.4 04:16:33 10° NNW 04:22:10 69° ENE 04:27:44 10° SSE visible
24 Apr 3.8 06:03:27 10° WNW 06:05:29 12° W 06:07:32 10° WSW visible
25 Apr 2.5 04:01:33 10° NNW 04:07:09 65° ENE 04:12:21 12° SSE visible
25 Apr 3.8 05:48:05 10° WNW 05:50:30 13° W 05:52:55 10° SW visible
26 Apr 2.6 03:46:33 10° NNW 03:52:08 61° ENE 03:53:51 42° SE visible
26 Apr 3.7 05:32:47 10° WNW 05:35:29 14° W 05:35:29 14° W visible
27 Apr 2.6 03:31:34 10° NNW 03:37:07 57° ENE 03:37:15 57° ENE visible
27 Apr 3.9 05:17:32 10° WNW 05:18:56 13° W 05:18:56 13° W visible
28 Apr 2.9 03:16:35 10° N 03:21:14 49° NE 03:21:14 49° NE visible
28 Apr 4.1 05:02:18 10° WNW 05:02:57 12° WNW 05:02:57 12° WNW visible
